KV6O Weather Reports


time (UTC)temp
C
wind
direction
speed
KPH
gust
KPH
rain 1hr
cm
rain 24hr
cm
rain mn
cm
humidity
%
barometer
mb
20260505110842 2 0 0.0 0.0 0.00 0.00 0.00 100
20260505101641 2 0 0.0 0.0 0.00 0.00 0.00 100
20260505100841 2 0 0.0 0.0 0.00 0.00 0.00 100
20260505100041 2 0 0.0 0.0 0.00 0.00 0.00 100
20260505095641 2 0 0.0 0.0 0.00 0.00 0.00 100
20260505094841 2 0 0.0 0.0 0.00 0.00 0.00 100
20260505094041 2 0 0.0 0.0 0.00 0.00 0.00 100
20260505093241 2 0 0.0 0.0 0.00 0.00 0.00 100
20260505092441 3 0 0.0 0.0 0.00 0.00 0.00 100
20260505091641 3 0 0.0 0.0 0.00 0.00 0.00 100
20260505090841 3 0 0.0 0.0 0.00 0.00 0.00 100
20260505090041 3 0 0.0 0.0 0.00 0.00 0.00 100
20260505085641 3 0 0.0 0.0 0.00 0.00 0.00 100
20260505084841 3 0 0.0 0.0 0.00 0.00 0.00 100
20260505084041 3 0 0.0 0.0 0.00 0.00 0.00 100
20260505083240 3 0 0.0 0.0 0.00 0.00 0.00 100
20260505081641 3 0 0.0 0.0 0.00 0.00 0.00 100
20260505080842 3 0 0.0 0.0 0.00 0.00 0.00 100
20260505080041 3 0 0.0 0.0 0.00 0.00 0.00 100
20260505075641 3 0 0.0 0.0 0.00 0.00 0.00 100
20260505074841 3 0 0.0 0.0 0.00 0.00 0.00 100
20260505074041 3 0 0.0 0.0 0.00 0.00 0.00 100
20260505073241 3 0 0.0 0.0 0.00 0.00 0.00 100
20260505072441 3 0 0.0 0.0 0.00 0.00 0.00 100
20260505071641 3 0 0.0 0.0 0.00 0.00 0.00 100
20260505070840 3 0 0.0 0.0 0.00 0.00 0.00 100
20260505070041 3 0 0.0 0.0 0.00 0.00 0.00 99
20260505064841 3 0 0.0 0.0 0.00 0.00 0.00 99
20260505064041 3 0 0.0 0.0 0.00 0.00 0.00 99
20260505063241 3 0 0.0 0.0 0.00 0.00 0.00 99
20260505062441 3 0 0.0 0.0 0.00 0.00 0.00 99
20260505061642 3 0 0.0 0.0 0.00 0.00 0.00 99
20260505054840 3 0 0.0 0.0 0.00 0.00 0.18 99
20260505054042 3 0 0.0 0.0 0.00 0.00 0.18 99
20260505053241 3 0 0.0 0.0 0.00 0.00 0.18 99
20260505051641 3 0 0.0 0.0 0.00 0.00 0.18 98
20260505041641 3 0 0.0 0.0 0.00 0.00 0.18 99
20260505040041 3 0 0.0 0.0 0.00 0.00 0.18 98
20260505033240 3 0 0.0 0.0 0.00 0.00 0.18 98
20260505032440 3 0 0.0 0.0 0.00 0.00 0.18 98
20260505031641 3 0 0.0 0.0 0.00 0.00 0.18 98
20260505030841 3 0 0.0 0.0 0.00 0.00 0.18 98
20260505030041 3 0 0.0 0.0 0.00 0.00 0.18 98
20260505025641 3 0 0.0 0.0 0.00 0.00 0.18 98
20260505024841 3 0 0.0 0.0 0.00 0.00 0.18 98
20260505024041 3 0 0.0 0.0 0.00 0.00 0.18 98
20260505023242 3 0 0.0 0.0 0.00 0.00 0.18 98
20260505022441 3 0 0.0 0.0 0.00 0.00 0.15 98
20260505021640 3 0 0.0 0.0 0.00 0.00 0.15 98
20260505020841 3 0 0.0 0.0 0.00 0.00 0.15 97
20260505015640 3 0 0.0 0.0 0.00 0.00 0.15 97
20260505014841 3 0 0.0 0.0 0.00 0.00 0.15 97
20260505014041 3 0 0.0 0.0 0.00 0.00 0.15 97
20260505013241 3 0 0.0 0.0 0.00 0.00 0.15 97
20260505012441 3 0 0.0 0.0 0.00 0.00 0.15 96
20260505011641 4 0 0.0 0.0 0.00 0.00 0.13 95
20260505010841 5 0 0.0 0.0 0.00 0.00 0.08 92
20260505010041 6 0 0.0 0.0 0.00 0.00 0.05 87
20260505005640 6 0 0.0 0.0 0.00 0.00 0.03 85
20260505004840 7 0 0.0 0.0 0.00 0.00 0.03 83
20260505004040 7 0 0.0 0.0 0.00 0.00 0.03 82
20260505003242 7 0 0.0 0.0 0.00 0.00 0.03 81
20260505001640 8 0 0.0 0.0 0.00 0.00 0.03 69
20260505000842 8 0 0.0 0.0 0.00 0.00 0.03 73
20260504235640 10 0 0.0 0.0 0.00 0.00 0.03 68
20260504234841 10 0 0.0 0.0 0.00 0.00 0.00 63
20260504234041 11 0 0.0 0.0 0.00 0.00 0.00 61
20260504233241 11 0 0.0 0.0 0.00 0.00 0.00 62
20260504232441 11 0 0.0 0.0 0.00 0.00 0.00 57
20260504231641 11 0 0.0 0.0 0.00 0.00 0.00 61
20260504230841 10 0 0.0 0.0 0.00 0.00 0.00 64
20260504230041 10 0 0.0 0.0 0.00 0.00 0.00 67
20260504225640 10 0 0.0 0.0 0.00 0.00 0.00 66
20260504224841 9 0 0.0 0.0 0.00 0.00 0.00 68
20260504223241 8 0 0.0 0.0 0.00 0.00 0.00 70
20260504222442 8 0 0.0 0.0 0.00 0.00 0.00 73
20260504221641 8 0 0.0 0.0 0.00 0.00 0.00 71
20260504220840 8 0 0.0 0.0 0.00 0.00 0.00 68
20260504215641 9 0 0.0 0.0 0.00 0.00 0.00 72
20260504214840 10 0 0.0 0.0 0.00 0.00 0.00 61
20260504214042 11 0 0.0 0.0 0.00 0.00 0.00 57
20260504213241 12 0 0.0 0.0 0.00 0.00 0.00 53
20260504212441 13 0 0.0 0.0 0.00 0.00 0.00 46
20260504211641 14 0 0.0 0.0 0.00 0.00 0.00 45
20260504210841 14 0 0.0 0.0 0.00 0.00 0.00 46
20260504210041 13 0 0.0 0.0 0.00 0.00 0.00 45
20260504205641 13 0 0.0 0.0 0.00 0.00 0.00 43
20260504204841 14 0 0.0 0.0 0.00 0.00 0.00 47
20260504204040 14 0 0.0 0.0 0.00 0.00 0.00 44
20260504203242 14 0 0.0 0.0 0.00 0.00 0.00 46
20260504202441 14 0 0.0 0.0 0.00 0.00 0.00 45
20260504201641 15 0 0.0 0.0 0.00 0.00 0.00 45
20260504200841 15 0 0.0 0.0 0.00 0.00 0.00 42
20260504200041 15 0 0.0 0.0 0.00 0.00 0.00 40
20260504195641 15 0 0.0 0.0 0.00 0.00 0.00 38
20260504194841 15 0 0.0 0.0 0.00 0.00 0.00 43
20260504194041 15 0 0.0 0.0 0.00 0.00 0.00 45
20260504193242 15 0 0.0 0.0 0.00 0.00 0.00 39
20260504192440 15 0 0.0 0.0 0.00 0.00 0.00 38
20260504191640 15 0 0.0 0.0 0.00 0.00 0.00 42
20260504190841 15 0 0.0 0.0 0.00 0.00 0.00 40
20260504190041 15 0 0.0 0.0 0.00 0.00 0.00 37
20260504185641 15 0 0.0 0.0 0.00 0.00 0.00 39
20260504184842 15 0 0.0 0.0 0.00 0.00 0.00 40
20260504184041 14 0 0.0 0.0 0.00 0.00 0.00 42
20260504183241 13 0 0.0 0.0 0.00 0.00 0.00 44
20260504182441 12 0 0.0 0.0 0.00 0.00 0.00 47
20260504181645 13 0 0.0 0.0 0.00 0.00 0.00 43
20260504180841 13 0 0.0 0.0 0.00 0.00 0.00 46
20260504180041 12 0 0.0 0.0 0.00 0.00 0.00 47
20260504175641 11 0 0.0 0.0 0.00 0.00 0.00 47
20260504174041 11 0 0.0 0.0 0.00 0.00 0.00 49
20260504173241 12 0 0.0 0.0 0.00 0.00 0.00 47
20260504171641 11 0 0.0 0.0 0.00 0.00 0.00 50
20260504170841 11 0 0.0 0.0 0.00 0.00 0.00 51
20260504150841 10 0 0.0 0.0 0.00 0.00 0.00 52
20260504140841 8 0 0.0 0.0 0.00 0.00 0.00 51